,,,,,,,���z��,���z��,����,����,,
DATE_TIME,�G���A���v�kMWh�l,���q�́kMWh�l,�ΉkMWh�l,���́kMWh�l,�n�M�kMWh�l,�o�C�I�}�X�kMWh�l,���сkMWh�l,�}���ʁkMWh�l,���сkMWh�l,�}���ʁkMWh�l,�g���kMWh�l,�A�n���kMWh�l
2017/10/1 0:00,6804,1776,5324,431,146,19,0,0,58,0,-60,-890
2017/10/1 1:00,6700,1779,5237,468,146,19,0,0,58,0,-243,-764
2017/10/1 2:00,6922,1778,5348,414,146,20,0,0,52,0,-60,-776
2017/10/1 3:00,7417,1778,5869,419,146,20,0,0,43,0,0,-858
2017/10/1 4:00,7842,1777,6254,502,146,20,0,0,51,0,0,-908
2017/10/1 5:00,7799,1777,6266,475,146,20,0,0,61,0,0,-946
2017/10/1 6:00,7388,1776,5575,498,146,20,100,0,73,0,0,-800
2017/10/1 7:00,7215,1777,4757,512,146,20,739,0,74,0,0,-810
2017/10/1 8:00,7211,1777,4126,376,146,20,1783,0,74,0,-369,-722
2017/10/1 9:00,7544,1776,4226,379,146,20,3093,0,71,0,-1285,-882
2017/10/1 10:00,7891,1775,4181,389,146,20,3505,0,53,0,-1272,-906
2017/10/1 11:00,7863,1776,4345,460,146,20,3411,0,48,0,-1107,-1236
2017/10/1 12:00,8029,1774,4548,433,146,20,3178,0,49,0,-921,-1198
2017/10/1 13:00,7921,1776,4715,466,146,20,2512,0,57,0,-675,-1096
2017/10/1 14:00,7883,1776,5302,459,146,20,1772,0,62,0,-692,-962
2017/10/1 15:00,7955,1774,5555,463,146,20,1164,0,79,0,-290,-956
2017/10/1 16:00,8238,1769,6214,476,146,20,593,0,94,0,0,-1074
2017/10/1 17:00,8694,1770,6869,571,146,20,152,0,88,0,48,-970
2017/10/1 18:00,9203,1769,6969,865,146,20,0,0,97,0,297,-960
2017/10/1 19:00,9040,1778,7046,786,146,20,0,0,109,0,159,-1004
2017/10/1 20:00,8654,1776,6992,619,146,20,0,0,108,0,59,-1066
2017/10/1 21:00,8170,1777,6741,536,146,20,0,0,116,0,0,-1166
2017/10/1 22:00,7670,1778,6245,429,146,20,0,0,128,0,0,-1076
2017/10/1 23:00,7269,1775,5995,389,146,20,0,0,123,0,-243,-936
2017/10/2 0:00,6835,1778,5847,483,145,23,0,0,115,0,-650,-906
2017/10/2 1:00,6733,1775,5669,482,145,23,0,0,115,0,-666,-810
2017/10/2 2:00,7001,1778,5875,406,145,23,0,0,112,0,-508,-830
2017/10/2 3:00,7537,1777,5984,500,145,23,0,0,118,0,-218,-792
2017/10/2 4:00,8008,1777,6145,661,145,23,0,0,145,0,0,-888
2017/10/2 5:00,8107,1777,6237,631,135,23,0,0,150,0,0,-846
2017/10/2 6:00,8194,1778,6346,502,104,23,19,0,146,0,0,-724
2017/10/2 7:00,8564,1777,6782,427,104,23,176,0,149,0,0,-874
2017/10/2 8:00,9242,1776,7145,455,104,23,467,0,150,0,0,-878
2017/10/2 9:00,9985,1776,7552,607,104,23,657,0,146,0,0,-880
2017/10/2 10:00,10312,1774,7746,744,104,23,773,0,136,0,0,-988
2017/10/2 11:00,10473,1773,7942,699,104,23,790,0,132,0,0,-990
2017/10/2 12:00,10049,1771,8055,497,104,23,601,0,126,0,0,-1128
2017/10/2 13:00,10420,1773,8097,614,104,24,416,0,133,0,153,-894
2017/10/2 14:00,10555,1773,8135,685,104,24,401,0,121,0,210,-898
2017/10/2 15:00,10552,1775,8184,770,104,24,327,0,91,0,149,-872
2017/10/2 16:00,10587,1775,8152,832,104,24,182,0,83,0,257,-822
2017/10/2 17:00,10612,1766,8168,836,104,24,40,0,79,0,503,-908
2017/10/2 18:00,10748,1768,8113,996,104,24,0,0,77,0,506,-840
2017/10/2 19:00,10258,1769,8090,969,104,24,0,0,68,0,136,-902
2017/10/2 20:00,9692,1773,7980,740,104,24,0,0,71,0,0,-1000
2017/10/2 21:00,9263,1773,7783,596,104,24,0,0,83,0,0,-1100
2017/10/2 22:00,8841,1768,7504,507,104,24,0,0,80,0,0,-1146
2017/10/2 23:00,8328,1770,6936,500,104,24,0,0,76,0,0,-1082
2017/10/3 0:00,7780,1767,6454,527,107,22,0,0,65,0,0,-1162
2017/10/3 1:00,7646,1769,6086,569,107,22,0,0,69,0,0,-976
2017/10/3 2:00,7829,1770,6419,521,107,22,0,0,64,0,0,-1074
2017/10/3 3:00,8339,1772,6908,792,107,22,0,0,54,0,0,-1316
2017/10/3 4:00,8683,1773,6970,766,107,22,0,0,51,0,0,-1006
2017/10/3 5:00,8731,1773,7026,749,107,22,0,0,46,0,0,-992
2017/10/3 6:00,8782,1773,7412,710,107,22,33,0,51,0,0,-1326
2017/10/3 7:00,9046,1773,7634,607,107,23,374,0,48,0,0,-1520
2017/10/3 8:00,9676,1773,7786,529,98,23,1069,0,48,0,0,-1650
2017/10/3 9:00,10346,1772,8067,643,86,23,1810,0,53,0,18,-2126
2017/10/3 10:00,10711,1772,7450,661,86,23,2689,0,68,0,0,-2038
2017/10/3 11:00,10826,1771,6745,624,86,23,3539,0,84,0,0,-2046
2017/10/3 12:00,10707,1772,6241,436,83,23,4202,0,84,0,0,-2134
2017/10/3 13:00,11295,1772,6832,452,86,23,3903,0,89,0,98,-1960
2017/10/3 14:00,11278,1773,7201,516,86,23,3462,0,87,0,0,-1870
2017/10/3 15:00,10922,1775,7695,511,86,23,2327,0,91,0,0,-1586
2017/10/3 16:00,10870,1766,7803,690,86,23,1227,0,99,0,0,-824
2017/10/3 17:00,10612,1769,8104,865,86,23,242,0,108,0,227,-812
2017/10/3 18:00,10785,1770,8093,996,97,23,0,0,107,0,577,-878
2017/10/3 19:00,10360,1775,8135,890,120,23,0,0,111,0,218,-912
2017/10/3 20:00,9743,1774,7837,820,126,23,0,0,107,0,0,-944
2017/10/3 21:00,9252,1776,7707,643,126,23,0,0,87,0,0,-1110
2017/10/3 22:00,8805,1776,7546,521,126,23,0,0,65,0,0,-1252
2017/10/3 23:00,8237,1774,7016,476,126,23,0,0,54,0,0,-1232
2017/10/4 0:00,7658,1774,6156,495,127,23,0,0,49,0,0,-966
2017/10/4 1:00,7507,1773,5892,529,127,23,0,0,35,0,0,-872
2017/10/4 2:00,7766,1776,6158,527,127,23,0,0,45,0,0,-890
2017/10/4 3:00,8210,1777,6483,672,127,23,0,0,54,0,0,-926
2017/10/4 4:00,8571,1776,6694,785,127,23,0,0,56,0,0,-890
2017/10/4 5:00,8585,1778,6590,844,127,23,0,0,65,0,0,-842
2017/10/4 6:00,8562,1777,6478,806,127,23,52,0,81,0,0,-782
2017/10/4 7:00,8637,1777,6510,604,127,23,655,0,81,0,0,-1140
2017/10/4 8:00,8914,1777,6107,534,127,23,1920,0,80,0,0,-1654
2017/10/4 9:00,9605,1756,5801,570,126,23,3283,0,78,0,-156,-1876
2017/10/4 10:00,9951,1705,5919,560,126,23,4305,0,78,0,-875,-1890
2017/10/4 11:00,10213,1718,5811,536,126,23,4960,0,77,0,-1262,-1776
2017/10/4 12:00,9952,1741,5532,408,126,23,5055,0,76,0,-1455,-1554
2017/10/4 13:00,10062,1764,5917,414,126,23,4436,0,76,0,-1128,-1566
2017/10/4 14:00,10273,1775,5985,478,126,23,3765,0,92,0,-349,-1622
2017/10/4 15:00,10176,1777,6697,591,126,23,2712,0,98,0,0,-1848
2017/10/4 16:00,10072,1776,7335,688,126,23,1322,0,110,0,60,-1368
2017/10/4 17:00,9929,1768,7497,804,126,24,269,0,119,0,232,-910
2017/10/4 18:00,10209,1770,7467,1017,126,24,0,0,119,0,608,-922
2017/10/4 19:00,9825,1770,7509,857,126,24,0,0,119,0,438,-1018
2017/10/4 20:00,9301,1774,7443,828,100,24,0,0,120,0,134,-1122
2017/10/4 21:00,8879,1776,7429,760,91,24,0,0,117,0,0,-1318
2017/10/4 22:00,8480,1776,7209,523,91,24,0,0,117,0,0,-1260
2017/10/4 23:00,7930,1775,6731,470,91,24,0,0,119,0,0,-1280
2017/10/5 0:00,7388,1775,5997,449,94,23,0,0,108,0,0,-1058
2017/10/5 1:00,7287,1774,5653,510,94,23,0,0,103,0,0,-870
2017/10/5 2:00,7491,1775,5986,464,94,23,0,0,97,0,0,-948
2017/10/5 3:00,8022,1778,6393,572,94,23,0,0,94,0,0,-932
2017/10/5 4:00,8398,1776,6573,758,94,23,0,0,88,0,0,-914
2017/10/5 5:00,8535,1778,6736,815,94,23,0,0,95,0,0,-1006
2017/10/5 6:00,8518,1779,6820,732,94,23,50,0,96,0,0,-1076
2017/10/5 7:00,8458,1777,6629,486,94,23,538,0,95,0,0,-1184
2017/10/5 8:00,8831,1779,6627,503,94,23,1429,0,78,0,0,-1702
2017/10/5 9:00,9387,1778,6128,556,95,23,2757,0,68,0,-24,-1994
2017/10/5 10:00,9819,1777,5657,487,95,23,4443,0,60,0,-837,-1886
2017/10/5 11:00,10073,1777,5317,508,95,23,5071,0,49,0,-791,-1976
2017/10/5 12:00,9816,1775,5317,429,95,23,4803,0,44,0,-710,-1960
2017/10/5 13:00,10404,1772,6155,550,95,23,3704,0,39,0,0,-1934
2017/10/5 14:00,10245,1773,6572,466,95,23,2762,0,36,0,0,-1482
2017/10/5 15:00,10092,1775,7034,537,95,23,1752,0,42,0,60,-1226
2017/10/5 16:00,10155,1768,7711,666,95,23,615,0,49,0,124,-896
2017/10/5 17:00,10190,1768,7746,822,95,23,89,0,66,0,455,-874
2017/10/5 18:00,10423,1769,7708,991,95,23,0,0,81,0,660,-904
2017/10/5 19:00,9940,1775,7799,965,95,23,0,0,72,0,219,-1008
2017/10/5 20:00,9400,1775,7671,864,95,23,0,0,80,0,0,-1108
2017/10/5 21:00,8974,1774,7406,792,95,23,0,0,88,0,0,-1204
2017/10/5 22:00,8581,1773,7275,576,95,24,0,0,92,0,0,-1254
2017/10/5 23:00,8058,1774,6805,509,95,24,0,0,103,0,0,-1252
2017/10/6 0:00,7562,1772,6012,540,94,20,0,0,88,0,0,-964
2017/10/6 1:00,7496,1770,5842,589,94,20,0,0,49,0,0,-868
2017/10/6 2:00,7716,1770,6179,523,94,20,0,0,42,0,0,-912
2017/10/6 3:00,8214,1770,6611,582,94,20,0,0,31,0,0,-894
2017/10/6 4:00,8647,1772,6846,795,94,20,0,0,38,0,0,-918
2017/10/6 5:00,8631,1774,6867,824,94,20,0,0,38,0,0,-986
2017/10/6 6:00,8712,1775,7192,749,90,20,8,0,34,0,0,-1156
2017/10/6 7:00,8944,1776,7443,741,90,20,167,0,29,0,0,-1322
2017/10/6 8:00,9505,1773,7863,819,90,20,443,0,25,0,0,-1528
2017/10/6 9:00,10149,1776,7817,851,90,20,865,0,14,0,0,-1284
2017/10/6 10:00,10475,1775,7625,684,90,20,1364,0,17,0,0,-1100
2017/10/6 11:00,10667,1775,7652,596,90,20,1671,0,15,0,0,-1152
2017/10/6 12:00,10183,1773,7663,520,90,20,1776,0,19,0,0,-1678
2017/10/6 13:00,10424,1772,7589,531,90,20,1598,0,16,0,0,-1192
2017/10/6 14:00,10513,1770,7192,581,90,20,1705,0,11,0,0,-856
2017/10/6 15:00,10574,1770,7479,637,90,20,1406,0,20,0,0,-848
2017/10/6 16:00,10525,1772,7897,828,90,20,691,0,14,0,7,-794
2017/10/6 17:00,10412,1771,7836,982,90,20,116,0,9,0,420,-832
2017/10/6 18:00,10555,1771,7633,1102,90,20,0,0,10,0,861,-932
2017/10/6 19:00,10073,1775,7334,1019,90,21,0,0,8,0,818,-992
2017/10/6 20:00,9560,1773,7001,919,90,21,0,0,9,0,845,-1098
2017/10/6 21:00,9122,1773,7463,711,90,21,0,0,5,0,247,-1188
2017/10/6 22:00,8739,1773,7487,601,90,21,0,0,7,0,0,-1240
2017/10/6 23:00,8257,1775,7015,560,91,21,0,0,7,0,0,-1212
2017/10/7 0:00,7686,1771,6434,548,94,19,0,0,6,0,0,-1186
2017/10/7 1:00,7561,1772,6278,593,94,19,0,0,5,0,0,-1200
2017/10/7 2:00,7730,1772,6469,515,94,19,0,0,5,0,78,-1222
2017/10/7 3:00,8175,1773,6364,621,94,19,0,0,4,0,360,-1060
2017/10/7 4:00,8574,1773,6490,849,94,19,0,0,3,0,450,-1104
2017/10/7 5:00,8500,1776,6506,883,94,19,0,0,3,0,193,-974
2017/10/7 6:00,8298,1777,6491,806,94,19,37,0,3,0,133,-1062
2017/10/7 7:00,8296,1776,6442,670,94,19,555,0,4,0,0,-1264
2017/10/7 8:00,8877,1776,5990,623,94,19,1958,0,5,0,0,-1588
2017/10/7 9:00,9634,1776,5732,549,94,19,3191,0,7,0,0,-1734
2017/10/7 10:00,9877,1776,5288,566,94,19,3962,0,7,0,-183,-1652
2017/10/7 11:00,10373,1775,5426,521,94,19,4622,0,9,0,-445,-1648
2017/10/7 12:00,9874,1774,5486,476,94,19,4446,0,14,0,-641,-1794
2017/10/7 13:00,10470,1770,5539,481,94,19,4657,0,17,0,-243,-1864
2017/10/7 14:00,10292,1771,5851,469,94,19,3930,0,20,0,0,-1862
2017/10/7 15:00,9922,1769,6536,590,94,19,2613,0,23,0,0,-1722
2017/10/7 16:00,10009,1762,6969,885,94,19,1246,0,18,0,280,-1264
2017/10/7 17:00,9953,1765,7031,912,94,19,210,0,26,0,1000,-1104
2017/10/7 18:00,10260,1769,7007,1021,94,19,0,0,33,0,1471,-1154
2017/10/7 19:00,9932,1774,7058,973,94,19,0,0,43,0,1193,-1222
2017/10/7 20:00,9401,1775,7051,910,94,19,0,0,49,0,797,-1294
2017/10/7 21:00,8900,1774,7043,841,94,20,0,0,43,0,459,-1374
2017/10/7 22:00,8359,1776,7003,707,94,20,0,0,37,0,52,-1330
2017/10/7 23:00,7782,1774,6607,520,94,20,0,0,29,0,0,-1262
2017/10/8 0:00,7276,1773,6040,538,94,19,0,0,28,0,0,-1216
2017/10/8 1:00,7109,1772,5913,528,94,19,0,0,27,0,0,-1244
2017/10/8 2:00,7339,1770,6106,515,94,19,0,0,27,0,0,-1192
2017/10/8 3:00,7705,1772,6513,555,94,19,0,0,24,0,0,-1272
2017/10/8 4:00,8076,1771,6703,739,94,19,0,0,18,0,0,-1268
2017/10/8 5:00,7922,1775,6559,718,94,19,0,0,19,0,0,-1262
2017/10/8 6:00,7497,1776,6237,551,94,19,60,0,22,0,0,-1262
2017/10/8 7:00,7436,1777,5626,416,94,19,780,0,20,0,-16,-1280
2017/10/8 8:00,7529,1776,5034,370,94,19,2122,0,13,0,-291,-1608
2017/10/8 9:00,8064,1776,4729,289,94,19,3509,0,10,0,-870,-1492
2017/10/8 10:00,8646,1779,4553,317,94,19,4474,0,7,0,-1283,-1314
2017/10/8 11:00,9049,1777,4617,381,94,19,5007,0,4,0,-1426,-1424
2017/10/8 12:00,9105,1775,4292,431,94,19,5039,0,3,0,-1510,-1038
2017/10/8 13:00,9283,1774,4296,387,94,19,4889,0,3,0,-1165,-1014
2017/10/8 14:00,9265,1771,4563,416,94,19,4088,0,3,0,-919,-770
2017/10/8 15:00,9295,1771,5172,519,94,19,2865,0,6,0,-181,-970
2017/10/8 16:00,9360,1767,6531,711,94,19,1288,0,8,0,0,-1058
2017/10/8 17:00,9541,1769,7507,813,94,19,209,0,15,0,347,-1232
2017/10/8 18:00,9900,1769,7516,926,94,19,0,0,15,0,767,-1206
2017/10/8 19:00,9641,1773,7543,883,94,19,0,0,11,0,556,-1238
2017/10/8 20:00,9155,1772,7581,739,94,19,0,0,12,0,248,-1310
2017/10/8 21:00,8635,1776,7419,690,94,19,0,0,17,0,0,-1380
2017/10/8 22:00,8132,1776,7142,515,94,19,0,0,20,0,0,-1434
2017/10/8 23:00,7594,1774,6468,430,94,20,0,0,20,0,0,-1212
2017/10/9 0:00,7103,1775,6035,396,95,18,0,0,20,0,0,-1236
2017/10/9 1:00,7013,1774,5924,435,95,18,0,0,25,0,0,-1258
2017/10/9 2:00,7243,1772,6157,453,95,19,0,0,25,0,0,-1278
2017/10/9 3:00,7623,1772,6475,530,95,19,0,0,20,0,0,-1288
2017/10/9 4:00,8018,1771,6597,622,95,19,0,0,20,0,0,-1106
2017/10/9 5:00,7915,1773,6493,568,95,19,0,0,19,0,0,-1052
2017/10/9 6:00,7769,1776,6558,597,95,19,64,0,18,0,0,-1358
2017/10/9 7:00,7767,1776,6181,481,95,19,816,0,17,0,0,-1618
2017/10/9 8:00,8326,1775,5455,439,95,19,2421,0,11,0,-237,-1652
2017/10/9 9:00,9063,1778,5493,339,95,19,3845,0,7,0,-975,-1538
2017/10/9 10:00,9748,1777,5709,408,95,19,4915,0,5,0,-1606,-1574
2017/10/9 11:00,10150,1774,5754,348,95,19,5358,0,4,0,-1536,-1666
2017/10/9 12:00,10249,1778,5766,295,95,19,5205,0,0,0,-1361,-1548
2017/10/9 13:00,10412,1773,5895,304,95,19,5009,0,0,0,-947,-1736
2017/10/9 14:00,10294,1773,6185,365,95,19,4080,0,1,0,-422,-1802
2017/10/9 15:00,10290,1772,7008,425,95,19,2829,0,2,0,0,-1860
2017/10/9 16:00,10266,1765,7990,660,95,19,1342,0,2,0,181,-1788
2017/10/9 17:00,10217,1765,8541,769,95,19,207,0,5,0,520,-1704
2017/10/9 18:00,10526,1768,8559,920,95,19,0,0,6,0,887,-1728
2017/10/9 19:00,10164,1777,8600,826,95,19,0,0,7,0,604,-1764
2017/10/9 20:00,9643,1775,8606,731,95,19,0,0,10,0,249,-1842
2017/10/9 21:00,9069,1775,8452,604,95,19,0,0,10,0,36,-1922
2017/10/9 22:00,8463,1775,8024,435,95,19,0,0,9,0,0,-1894
2017/10/9 23:00,7814,1777,7340,376,95,19,0,0,5,0,0,-1798
2017/10/10 0:00,7328,1773,6758,362,95,19,0,0,3,0,-40,-1642
2017/10/10 1:00,7142,1774,6795,391,95,19,0,0,3,0,-259,-1676
2017/10/10 2:00,7318,1773,6930,347,95,19,0,0,3,0,-273,-1576
2017/10/10 3:00,7841,1770,7084,492,95,19,0,0,3,0,0,-1622
2017/10/10 4:00,8246,1770,7362,609,95,19,0,0,3,0,0,-1612
2017/10/10 5:00,8359,1770,7564,578,95,19,0,0,3,0,0,-1670
2017/10/10 6:00,8384,1774,7528,626,95,19,62,0,4,0,0,-1724
2017/10/10 7:00,8566,1775,7061,500,95,19,890,0,2,0,0,-1776
2017/10/10 8:00,9273,1773,6747,390,95,19,2474,0,1,0,0,-2226
2017/10/10 9:00,10341,1776,6623,415,95,19,3845,0,0,0,0,-2432
2017/10/10 10:00,10978,1775,6543,387,89,19,4648,0,1,0,0,-2484
2017/10/10 11:00,11575,1774,6593,406,89,19,5228,0,1,0,-231,-2304
2017/10/10 12:00,11200,1775,7068,313,89,19,5170,0,2,0,-888,-2348
2017/10/10 13:00,11798,1773,7334,380,89,19,4884,0,3,0,-312,-2372
2017/10/10 14:00,11917,1772,7716,381,95,19,4092,0,2,0,0,-2160
2017/10/10 15:00,11729,1772,8434,491,95,19,2796,0,2,0,0,-1880
2017/10/10 16:00,11579,1770,8962,772,95,19,1329,0,1,0,145,-1514
2017/10/10 17:00,11289,1770,9138,866,95,19,185,0,1,0,543,-1328
2017/10/10 18:00,11383,1765,9167,886,95,19,0,0,1,0,572,-1122
2017/10/10 19:00,10786,1765,9133,872,95,19,0,0,1,0,161,-1260
2017/10/10 20:00,10088,1765,9055,858,95,20,0,0,0,0,73,-1778
2017/10/10 21:00,9571,1773,8815,757,95,20,0,0,1,0,0,-1890
2017/10/10 22:00,9098,1774,8673,520,95,20,0,0,0,0,0,-1984
2017/10/10 23:00,8529,1774,8268,396,95,20,0,0,0,0,0,-2024
2017/10/11 0:00,7855,1774,7953,383,95,19,0,0,1,0,-504,-1866
2017/10/11 1:00,7594,1774,7957,468,95,19,0,0,3,0,-882,-1840
2017/10/11 2:00,7777,1772,8146,395,95,19,0,0,4,0,-784,-1870
2017/10/11 3:00,8176,1772,8149,444,95,19,0,0,4,0,-359,-1948
2017/10/11 4:00,8589,1770,8183,486,95,19,0,0,2,0,0,-1966
2017/10/11 5:00,8679,1771,8003,568,95,19,0,0,1,0,0,-1778
2017/10/11 6:00,8710,1771,8127,604,95,19,56,0,0,0,0,-1962
2017/10/11 7:00,8740,1773,7555,467,95,19,851,0,0,0,0,-2020
2017/10/11 8:00,9425,1773,6995,417,95,19,2329,0,0,0,-61,-2142
2017/10/11 9:00,10359,1778,6580,389,89,20,3765,0,0,0,-412,-1850
2017/10/11 10:00,11139,1778,6704,341,89,20,4823,0,1,0,-591,-2026
2017/10/11 11:00,11333,1779,6675,327,89,20,4889,0,4,0,-494,-1956
2017/10/11 12:00,11264,1777,6759,280,80,20,5002,0,5,0,-477,-2182
2017/10/11 13:00,11922,1775,7161,352,89,20,4650,0,8,0,-47,-2086
2017/10/11 14:00,11873,1775,7888,460,89,20,3635,0,10,0,0,-2004
2017/10/11 15:00,11518,1773,8723,448,89,20,2044,0,11,0,92,-1682
2017/10/11 16:00,11311,1764,8901,703,89,20,797,0,7,0,490,-1460
2017/10/11 17:00,11193,1766,8981,895,89,20,100,0,7,0,825,-1490
2017/10/11 18:00,11264,1767,9015,948,89,20,0,0,7,0,792,-1374
2017/10/11 19:00,10761,1775,9047,830,94,20,0,0,3,0,342,-1350
2017/10/11 20:00,10101,1774,8998,745,94,20,0,0,1,0,81,-1612
2017/10/11 21:00,9610,1774,8971,609,94,20,0,0,0,0,20,-1878
2017/10/11 22:00,9188,1773,8790,430,94,20,0,0,1,0,0,-1920
2017/10/11 23:00,8590,1775,8352,321,94,20,0,0,0,0,0,-1972
2017/10/12 0:00,8006,1773,7657,340,94,19,0,0,1,0,0,-1878
2017/10/12 1:00,7799,1774,7384,386,94,19,0,0,2,0,0,-1860
2017/10/12 2:00,7877,1776,7523,337,94,19,0,0,0,0,0,-1872
2017/10/12 3:00,8315,1777,7897,410,94,19,0,0,0,0,0,-1882
2017/10/12 4:00,8701,1775,8190,511,94,19,0,0,0,0,0,-1888
2017/10/12 5:00,8793,1774,8215,585,94,19,0,0,0,0,0,-1894
2017/10/12 6:00,8820,1773,8354,504,94,19,42,0,0,0,0,-1966
2017/10/12 7:00,8876,1773,7921,407,94,19,672,0,0,0,0,-2010
2017/10/12 8:00,9606,1774,7645,319,94,19,1999,0,0,0,0,-2244
2017/10/12 9:00,10680,1774,8139,334,94,19,3067,0,1,0,-392,-2356
2017/10/12 10:00,10977,1775,8257,347,94,19,3291,0,9,0,-529,-2286
2017/10/12 11:00,11287,1773,8184,345,94,19,3485,0,21,0,-226,-2408
2017/10/12 12:00,10917,1774,8058,299,91,19,3280,0,17,0,-327,-2294
2017/10/12 13:00,11502,1774,8610,399,90,19,2963,0,15,0,0,-2368
2017/10/12 14:00,11460,1774,8885,494,90,19,2500,0,14,0,42,-2358
2017/10/12 15:00,11192,1772,9091,533,90,19,1551,0,13,0,219,-2096
2017/10/12 16:00,11220,1764,9106,758,92,20,682,0,11,0,437,-1650
2017/10/12 17:00,11093,1766,9114,814,94,20,87,0,35,0,759,-1596
2017/10/12 18:00,11164,1763,9093,888,94,20,0,0,63,0,925,-1682
2017/10/12 19:00,10605,1763,9133,787,94,20,0,0,57,0,541,-1790
2017/10/12 20:00,9973,1768,9093,744,94,20,0,0,47,0,87,-1880
2017/10/12 21:00,9447,1766,9037,552,94,20,0,0,44,0,0,-2066
2017/10/12 22:00,9035,1767,8782,365,94,20,0,0,73,0,0,-2066
2017/10/12 23:00,8513,1768,8667,386,94,20,0,0,76,0,-506,-1992
2017/10/13 0:00,7827,1769,8560,128,94,20,0,0,72,0,-870,-1946
2017/10/13 1:00,7685,1769,8546,147,94,20,0,0,58,0,-1049,-1900
2017/10/13 2:00,7795,1768,8551,264,94,20,0,0,39,0,-1011,-1930
2017/10/13 3:00,8235,1770,8630,457,94,20,0,0,35,0,-811,-1960
2017/10/13 4:00,8635,1768,8490,519,94,20,0,0,31,0,-451,-1836
2017/10/13 5:00,8724,1770,8485,527,94,20,0,0,40,0,-296,-1916
2017/10/13 6:00,8770,1769,8462,477,94,21,25,0,35,0,-157,-1956
2017/10/13 7:00,8952,1771,8311,410,94,21,333,0,36,0,0,-2024
2017/10/13 8:00,9465,1772,8193,370,94,21,1207,0,32,0,0,-2224
2017/10/13 9:00,10220,1774,7633,454,94,21,2153,0,29,0,0,-1938
2017/10/13 10:00,10411,1773,7823,362,94,21,2474,0,36,0,0,-2172
2017/10/13 11:00,10567,1774,7883,354,94,21,2579,0,32,0,0,-2170
2017/10/13 12:00,9996,1774,7495,328,94,21,2449,0,39,0,0,-2204
2017/10/13 13:00,10443,1774,7957,362,94,21,2370,0,43,0,0,-2178
2017/10/13 14:00,10472,1775,8148,363,94,21,1905,0,38,0,0,-1872
2017/10/13 15:00,10366,1775,8552,394,94,21,1214,0,40,0,0,-1724
2017/10/13 16:00,10394,1767,8843,712,94,21,517,0,52,0,0,-1612
2017/10/13 17:00,10398,1768,9080,792,94,21,65,0,57,0,9,-1488
2017/10/13 18:00,10461,1775,9006,895,94,21,0,0,44,0,0,-1374
2017/10/13 19:00,9987,1770,8947,871,94,21,0,0,48,0,24,-1788
2017/10/13 20:00,9430,1775,8602,778,94,21,0,0,46,0,0,-1886
2017/10/13 21:00,9038,1775,8574,555,94,21,0,0,49,0,0,-2030
2017/10/13 22:00,8640,1776,8336,411,94,21,0,0,62,0,0,-2060
2017/10/13 23:00,8216,1775,7797,368,94,21,0,0,67,0,0,-1906
2017/10/14 0:00,7612,1777,6919,319,95,20,0,0,64,0,0,-1582
2017/10/14 1:00,7422,1776,6559,330,95,20,0,0,62,0,0,-1420
2017/10/14 2:00,7615,1777,6777,289,95,20,0,0,67,0,0,-1410
2017/10/14 3:00,8024,1776,7177,405,95,20,0,0,59,0,0,-1508
2017/10/14 4:00,8414,1776,7502,569,95,21,0,0,61,0,0,-1610
2017/10/14 5:00,8353,1776,7312,505,95,21,0,0,70,0,0,-1426
2017/10/14 6:00,8199,1776,7233,450,95,21,22,0,94,0,0,-1492
2017/10/14 7:00,8231,1774,6993,454,95,21,348,0,96,0,0,-1550
2017/10/14 8:00,8571,1776,7114,395,95,21,796,0,92,0,0,-1718
2017/10/14 9:00,9078,1775,6969,353,95,21,1361,0,92,0,0,-1588
2017/10/14 10:00,9224,1775,6784,315,95,21,1843,0,93,0,0,-1702
2017/10/14 11:00,9396,1776,7018,364,95,21,1773,0,81,0,0,-1732
2017/10/14 12:00,9130,1775,7114,320,95,21,1466,0,81,0,0,-1742
2017/10/14 13:00,9241,1776,7428,304,95,21,1196,0,79,0,0,-1658
2017/10/14 14:00,9226,1775,7543,300,95,21,966,0,84,0,0,-1558
2017/10/14 15:00,9203,1777,7774,352,95,21,635,0,97,0,0,-1548
2017/10/14 16:00,9247,1777,7922,547,95,21,248,0,95,0,0,-1458
2017/10/14 17:00,9455,1769,8108,830,95,21,26,0,112,0,28,-1534
2017/10/14 18:00,9641,1769,8089,944,95,21,0,0,116,0,145,-1538
2017/10/14 19:00,9281,1770,7868,896,95,21,0,0,143,0,30,-1542
2017/10/14 20:00,8848,1776,7742,669,95,21,0,0,153,0,0,-1608
2017/10/14 21:00,8293,1777,7322,486,95,21,0,0,162,0,0,-1570
2017/10/14 22:00,7849,1776,6807,368,95,21,0,0,158,0,0,-1376
2017/10/14 23:00,7462,1777,6348,416,95,21,0,0,159,0,-102,-1252
2017/10/15 0:00,6970,1776,6094,451,95,19,0,0,139,0,-336,-1268
2017/10/15 1:00,6876,1778,5990,461,95,19,0,0,148,0,-335,-1280
2017/10/15 2:00,7101,1777,6271,419,95,19,0,0,147,0,-323,-1304
2017/10/15 3:00,7662,1777,6400,545,95,19,0,0,146,0,0,-1320
2017/10/15 4:00,8017,1777,6513,689,95,19,0,0,146,0,0,-1222
2017/10/15 5:00,7867,1776,6334,687,95,19,0,0,150,0,0,-1194
2017/10/15 6:00,7489,1777,6269,633,95,19,5,0,161,0,0,-1470
2017/10/15 7:00,7445,1777,6239,592,95,20,120,0,176,0,0,-1574
2017/10/15 8:00,7573,1775,6055,565,95,20,393,0,174,0,0,-1504
2017/10/15 9:00,7881,1776,6172,596,95,20,597,0,183,0,0,-1558
2017/10/15 10:00,7984,1774,6123,597,95,20,855,0,196,0,0,-1676
2017/10/15 11:00,8109,1776,6018,624,95,20,1037,0,183,0,0,-1644
2017/10/15 12:00,8150,1776,6110,538,95,20,974,0,175,0,0,-1538
2017/10/15 13:00,8201,1776,6486,572,95,20,698,0,154,0,0,-1600
2017/10/15 14:00,8217,1776,6778,620,95,20,394,0,136,0,0,-1602
2017/10/15 15:00,8249,1777,7027,616,95,20,231,0,125,0,0,-1642
2017/10/15 16:00,8463,1768,7247,767,95,20,77,0,133,0,0,-1644
2017/10/15 17:00,8970,1770,7443,1074,95,20,6,0,152,0,12,-1602
2017/10/15 18:00,9226,1770,7359,1152,95,20,0,0,152,0,0,-1322
2017/10/15 19:00,8967,1777,7150,995,95,20,0,0,180,0,0,-1250
2017/10/15 20:00,8599,1776,7142,903,95,20,0,0,167,0,0,-1504
2017/10/15 21:00,8187,1776,6898,760,95,20,0,0,176,0,0,-1538
2017/10/15 22:00,7793,1776,6458,724,95,20,0,0,168,0,0,-1448
2017/10/15 23:00,7318,1774,6106,680,95,20,0,0,157,0,0,-1514
2017/10/16 0:00,6893,1776,5635,823,95,19,0,0,160,0,-129,-1486
2017/10/16 1:00,6840,1776,5719,714,95,19,0,0,152,0,-431,-1204
2017/10/16 2:00,7197,1775,5973,659,95,19,0,0,148,0,-246,-1226
2017/10/16 3:00,7732,1777,6243,714,95,19,0,0,146,0,0,-1262
2017/10/16 4:00,8140,1777,6500,851,95,19,0,0,148,0,0,-1250
2017/10/16 5:00,8206,1777,6821,904,95,19,0,0,126,0,0,-1536
2017/10/16 6:00,8365,1777,7150,903,95,19,3,0,136,0,0,-1718
2017/10/16 7:00,8662,1777,7514,748,95,19,150,0,123,0,0,-1764
2017/10/16 8:00,9162,1776,7765,830,84,19,407,0,129,0,0,-1848
2017/10/16 9:00,9691,1742,8021,831,55,19,792,0,115,0,8,-1892
2017/10/16 10:00,9987,1689,7873,862,55,19,1048,0,97,0,0,-1656
2017/10/16 11:00,9955,1698,7799,872,55,19,965,0,99,0,0,-1552
2017/10/16 12:00,9487,1722,7784,655,55,19,1014,0,122,0,0,-1884
2017/10/16 13:00,9890,1744,7971,651,55,19,837,0,117,0,0,-1504
2017/10/16 14:00,9943,1768,8107,651,55,19,733,0,112,0,0,-1502
2017/10/16 15:00,9907,1775,8355,690,55,19,386,0,115,0,0,-1488
2017/10/16 16:00,10099,1774,8563,880,55,20,136,0,117,0,72,-1518
2017/10/16 17:00,10260,1769,8603,939,55,20,9,0,140,0,375,-1650
2017/10/16 18:00,10317,1770,8549,1065,83,20,0,0,143,0,397,-1710
2017/10/16 19:00,9888,1773,8517,1062,94,20,0,0,146,0,90,-1814
2017/10/16 20:00,9368,1775,8202,1057,94,20,0,0,132,0,0,-1912
2017/10/16 21:00,8946,1775,8070,984,94,20,0,0,117,0,0,-2114
2017/10/16 22:00,8484,1774,7813,820,94,20,0,0,117,0,0,-2154
2017/10/16 23:00,7951,1775,7250,690,94,20,0,0,126,0,0,-2004
2017/10/17 0:00,7467,1774,6643,662,95,21,0,0,113,0,-87,-1754
2017/10/17 1:00,7312,1774,6514,624,95,21,0,0,97,0,-37,-1776